Weather History for KMSO - August, 2014

Change the Weather History Date:

Wednesday, August 20, 2014

  Actual Average Record
Temperature  
Mean Temperature 65 °F 67 °F  
Max Temperature 78 °F 84 °F 99 °F (1940)
Min Temperature 51 °F 50 °F 36 °F (1915)
Degree Days  
Heating Degree Days 0 2  
Month to date heating degree days 2 21  
Since 1 June heating degree days 185 219  
Since 1 July heating degree days 8 59  
Cooling Degree Days 0 3  
Month to date cooling degree days 127 98  
Year to date cooling degree days 367 292  
Since 1 June cooling degree days 367 286  
Growing Degree Days 14 (Base 50)    
Moisture  
Dew Point 51 °F    
Average Humidity 63    
Maximum Humidity 89    
Minimum Humidity 36    
Precipitation  
Precipitation 0.08 in 0.05 in 0.97 in (1981)
Month to date precipitation 0.55 0.74  
Year to date precipitation 9.63 9.58  
Snow  
Snow 0.00 in - - ()
Month to date snowfall 0.0  
Year to date snowfall 51.9  
Since 1 July snowfall 0.0  
Snow Depth 0.00 in    
Sea Level Pressure  
Sea Level Pressure 29.83 in    
Wind  
Wind Speed 6 mph (NNW)    
Max Wind Speed 16 mph    
Max Gust Speed 22 mph    
Visibility 10 miles    
Events Rain , Thunderstorm    
T = Trace of Precipitation, MM = Missing Value Source: NWS Daily Summary

Daily Weather History Graph

Daily Weather History Graph

Search for Another Location

Airport or City:

Trip Planner

Search our weather history database for the weather conditions in past years. The results will help you decide how hot, cold, wet, or windy it might be!

Date:

Astronomy

Aug. 20, 2014 Rise Set
Actual Time 6:40 AM MDT 8:38 PM MDT
Civil Twilight 6:07 AM MDT 9:10 PM MDT
Nautical Twilight 5:27 AM MDT 9:50 PM MDT
Astronomical Twilight 4:42 AM MDT 10:35 PM MDT
Moon 2:16 AM MDT (8/20) 5:32 PM MDT (8/20)
Length of Visible Light 15h 03m
Length of Day
13h 57m
Waning Crescent, 20% of the Moon is Illuminated
Aug 20
Waning Crescent
Aug 25
New
Sep 2
First Quarter
Sep 8
Full
Sep 15
Last Quarter

Hourly Weather History & Observations

Time (MDT) Temp. Dew Point Humidity Pressure Visibility Wind Dir Wind Speed Gust Speed Precip Events Conditions
12:53 AM 66.0 °F 44.1 °F 45% 29.73 in 10.0 mi Variable 5.8 mph - N/A   Mostly Cloudy
1:53 AM 63.0 °F 46.9 °F 56% 29.73 in 10.0 mi East 4.6 mph - N/A   Partly Cloudy
2:17 AM 63.0 °F 48.0 °F 58% 29.82 in 10.0 mi SE 6.9 mph - 0.00 in Rain , Thunderstorm Light Rain
2:40 AM 62.1 °F 51.1 °F 67% 29.85 in 10.0 mi SSE 3.5 mph - 0.00 in Rain Light Rain
2:53 AM 63.0 °F 51.1 °F 65% 29.77 in 10.0 mi East 8.1 mph - 0.00 in Rain , Thunderstorm Light Rain
3:02 AM 63.0 °F 51.1 °F 65% 29.84 in 10.0 mi ESE 10.4 mph - 0.00 in Rain Light Rain
3:53 AM 59.0 °F 54.0 °F 83% 29.76 in 10.0 mi SSW 5.8 mph - 0.03 in   Overcast
4:53 AM 55.9 °F 52.0 °F 87% 29.77 in 10.0 mi NW 3.5 mph - N/A   Partly Cloudy
5:53 AM 55.0 °F 51.1 °F 86% 29.80 in 10.0 mi Calm Calm - N/A   Clear
6:53 AM 51.1 °F 48.9 °F 92% 29.83 in 10.0 mi NNW 5.8 mph - N/A   Scattered Clouds
7:53 AM 55.9 °F 52.0 °F 87% 29.84 in 10.0 mi NNW 3.5 mph - 0.00 in   Mostly Cloudy
8:53 AM 57.0 °F 54.0 °F 89% 29.86 in 10.0 mi Calm Calm - N/A   Overcast
9:53 AM 57.0 °F 54.0 °F 89% 29.89 in 9.0 mi NW 5.8 mph - 0.00 in Rain Light Rain
10:53 AM 62.1 °F 57.0 °F 84% 29.88 in 10.0 mi Calm Calm - 0.05 in   Scattered Clouds
11:53 AM 64.0 °F 54.0 °F 70% 29.88 in 10.0 mi NW 6.9 mph - N/A   Clear
12:53 PM 64.9 °F 54.0 °F 68% 29.86 in 10.0 mi WNW 8.1 mph - N/A   Mostly Cloudy
1:53 PM 69.1 °F 53.1 °F 57% 29.85 in 10.0 mi NW 5.8 mph - N/A   Mostly Cloudy
2:53 PM 72.0 °F 52.0 °F 49% 29.83 in 10.0 mi NW 12.7 mph - N/A   Clear
3:53 PM 75.0 °F 50.0 °F 41% 29.81 in 10.0 mi NW 6.9 mph - N/A   Clear
4:53 PM 77.0 °F 48.9 °F 37% 29.79 in 10.0 mi NW 11.5 mph - N/A   Clear
5:53 PM 75.9 °F 50.0 °F 40% 29.79 in 10.0 mi WNW 8.1 mph - N/A   Clear
6:53 PM 75.9 °F 48.9 °F 38% 29.80 in 10.0 mi NW 8.1 mph - N/A   Clear
7:53 PM 73.0 °F 50.0 °F 44% 29.80 in 10.0 mi NNE 11.5 mph 20.7 mph N/A   Mostly Cloudy
8:53 PM 68.0 °F 51.1 °F 55% 29.85 in 10.0 mi SSE 6.9 mph - N/A   Overcast
9:53 PM 64.0 °F 53.1 °F 67% 29.87 in 10.0 mi SSE 4.6 mph - N/A   Clear
10:53 PM 59.0 °F 52.0 °F 78% 29.89 in 10.0 mi East 5.8 mph - N/A   Clear
11:53 PM 61.0 °F 51.1 °F 70% 29.90 in 10.0 mi SSE 8.1 mph - N/A   Overcast